EWG8ZJ EDDL-EDDB

Flight info

Callsign EWG8ZJ
Flight time 0h 45m
Altitude 33000
Route MEVEL1Z MEVEL L179 MISRI Z851 ROBEG DCT BATEL T207 OGBER
Aircraft A320/M-SDE3FGHIRWY/LB1

Departure

Time 2026-05-05 08:12
Airport Düsseldorf Airport (EDDL)

Arrival

Time 2026-05-05 08:57
Airport Berlin Brandenburg Airport (EDDB)
Time Latitude Longitude Altitude Speed Heading
2026-05-05 07:45 51.28106 6.76721 131 ft 0 kts 276°
2026-05-05 08:04 51.28104 6.76744 126 ft 4 kts 283°
2026-05-05 08:04 51.28094 6.76782 126 ft 4 kts 316°
2026-05-05 08:04 51.28074 6.76796 126 ft 3 kts 15°
2026-05-05 08:05 51.28062 6.76790 127 ft 2 kts 18°
2026-05-05 08:05 51.28061 6.76789 127 ft 0 kts 17°
2026-05-05 08:07 51.28061 6.76790 130 ft 0 kts 17°
2026-05-05 08:07 51.28093 6.76807 129 ft 8 kts 19°
2026-05-05 08:08 51.28146 6.76829 130 ft 7 kts 10°
2026-05-05 08:08 51.28191 6.76841 130 ft 6 kts
2026-05-05 08:08 51.28244 6.76849 130 ft 11 kts
2026-05-05 08:08 51.28339 6.76868 128 ft 16 kts
2026-05-05 08:09 51.28434 6.76795 126 ft 12 kts 325°
2026-05-05 08:09 51.28509 6.76820 126 ft 14 kts 44°
2026-05-05 08:09 51.28583 6.76974 128 ft 21 kts 53°
2026-05-05 08:09 51.28693 6.77207 129 ft 29 kts 52°
2026-05-05 08:10 51.28817 6.77464 127 ft 30 kts 53°
2026-05-05 08:10 51.28895 6.77629 127 ft 28 kts 53°
2026-05-05 08:10 51.29016 6.77882 130 ft 29 kts 53°
2026-05-05 08:10 51.29132 6.78129 134 ft 21 kts 53°
2026-05-05 08:11 51.29258 6.78187 138 ft 23 kts 333°
2026-05-05 08:11 51.29247 6.77885 138 ft 53 kts 236°
2026-05-05 08:11 51.28857 6.77082 130 ft 126 kts 232°
2026-05-05 08:11 51.28220 6.75737 281 ft 165 kts 236°
2026-05-05 08:12 51.27541 6.74285 1018 ft 165 kts 234°
2026-05-05 08:12 51.26876 6.72775 1719 ft 175 kts 247°
2026-05-05 08:12 51.26877 6.70798 2140 ft 191 kts 297°
2026-05-05 08:12 51.27839 6.69321 2694 ft 198 kts 331°
2026-05-05 08:13 51.29156 6.68629 3393 ft 203 kts 354°
2026-05-05 08:13 51.30645 6.68695 3934 ft 226 kts
2026-05-05 08:13 51.32304 6.68880 4494 ft 251 kts
2026-05-05 08:13 51.34102 6.69079 5136 ft 269 kts
2026-05-05 08:14 51.35994 6.69324 5988 ft 275 kts 10°
2026-05-05 08:14 51.37789 6.70402 6794 ft 279 kts 34°
2026-05-05 08:14 51.39169 6.72584 7616 ft 281 kts 54°
2026-05-05 08:14 51.40332 6.75138 8475 ft 285 kts 55°
2026-05-05 08:15 51.41497 6.77727 9312 ft 289 kts 55°
2026-05-05 08:15 51.42685 6.80373 10107 ft 294 kts 55°
2026-05-05 08:15 51.43907 6.83093 10398 ft 317 kts 55°
2026-05-05 08:15 51.45238 6.86049 10779 ft 334 kts 54°
2026-05-05 08:16 51.46612 6.89092 11461 ft 339 kts 54°
2026-05-05 08:16 51.48004 6.92168 12240 ft 342 kts 54°
2026-05-05 08:16 51.49409 6.95273 13048 ft 345 kts 53°
2026-05-05 08:16 51.50822 6.98402 13834 ft 347 kts 53°
2026-05-05 08:17 51.52244 7.01564 14490 ft 351 kts 53°
2026-05-05 08:17 51.53685 7.04773 15108 ft 355 kts 53°
2026-05-05 08:17 51.55139 7.08011 15706 ft 360 kts 54°
2026-05-05 08:17 51.56616 7.11304 16322 ft 365 kts 53°
2026-05-05 08:18 51.58088 7.14590 16924 ft 369 kts 54°
2026-05-05 08:18 51.59599 7.17968 17503 ft 374 kts 54°
2026-05-05 08:18 51.61121 7.21389 18089 ft 378 kts 54°
2026-05-05 08:18 51.62663 7.24856 18595 ft 383 kts 54°
2026-05-05 08:19 51.64220 7.28361 19080 ft 388 kts 53°
2026-05-05 08:19 51.65796 7.31914 19603 ft 392 kts 53°
2026-05-05 08:19 51.67388 7.35507 20135 ft 395 kts 53°
2026-05-05 08:19 51.68992 7.39123 20666 ft 399 kts 53°
2026-05-05 08:20 51.70612 7.42780 21179 ft 403 kts 53°
2026-05-05 08:20 51.72232 7.46438 21688 ft 407 kts 53°
2026-05-05 08:20 51.73884 7.50174 22214 ft 411 kts 53°
2026-05-05 08:20 51.75551 7.53952 22715 ft 415 kts 53°
2026-05-05 08:21 51.77235 7.57779 23193 ft 420 kts 53°
2026-05-05 08:21 51.78929 7.61640 23645 ft 424 kts 53°
2026-05-05 08:21 51.80644 7.65556 24039 ft 427 kts 53°
2026-05-05 08:21 51.82367 7.69488 24434 ft 431 kts 53°
2026-05-05 08:22 51.84111 7.73467 24846 ft 435 kts 53°
2026-05-05 08:22 51.85867 7.77481 25228 ft 438 kts 53°
2026-05-05 08:22 51.87606 7.81471 25591 ft 442 kts 53°
2026-05-05 08:22 51.89379 7.85555 25950 ft 445 kts 53°
2026-05-05 08:23 51.91165 7.89681 26295 ft 448 kts 53°
2026-05-05 08:23 51.92967 7.93842 26651 ft 451 kts 53°
2026-05-05 08:23 51.94777 7.98019 26989 ft 455 kts 53°
2026-05-05 08:23 51.96604 8.02235 27329 ft 458 kts 53°
2026-05-05 08:24 51.98385 8.06455 27646 ft 461 kts 58°
2026-05-05 08:24 51.99690 8.11235 27976 ft 466 kts 71°
2026-05-05 08:24 52.00707 8.16246 28285 ft 469 kts 72°
2026-05-05 08:24 52.01716 8.21310 28594 ft 472 kts 72°
2026-05-05 08:25 52.02718 8.26408 28894 ft 475 kts 72°
2026-05-05 08:25 52.03721 8.31545 29188 ft 478 kts 72°
2026-05-05 08:25 52.04730 8.36730 29485 ft 481 kts 72°
2026-05-05 08:25 52.05729 8.41854 29770 ft 484 kts 72°
2026-05-05 08:26 52.06751 8.47080 30033 ft 487 kts 72°
2026-05-05 08:26 52.07778 8.52334 30262 ft 489 kts 72°
2026-05-05 08:26 52.08808 8.57615 30498 ft 491 kts 72°
2026-05-05 08:26 52.09841 8.62914 30731 ft 493 kts 72°
2026-05-05 08:27 52.10880 8.68250 30966 ft 495 kts 72°
2026-05-05 08:27 52.11919 8.73605 31200 ft 497 kts 73°
2026-05-05 08:27 52.12954 8.78974 31483 ft 497 kts 73°
2026-05-05 08:27 52.13984 8.84343 31818 ft 496 kts 73°
2026-05-05 08:28 52.15010 8.89719 32143 ft 496 kts 73°
2026-05-05 08:28 52.16027 8.95070 32447 ft 495 kts 73°
2026-05-05 08:28 52.17045 9.00437 32766 ft 495 kts 73°
2026-05-05 08:28 52.18049 9.05728 32903 ft 492 kts 73°
2026-05-05 08:29 52.20037 9.16225 32921 ft 480 kts 73°
2026-05-05 08:30 52.22967 9.31802 32916 ft 478 kts 73°
2026-05-05 08:30 52.24903 9.42182 32914 ft 478 kts 73°
2026-05-05 08:31 52.26825 9.52586 32906 ft 478 kts 74°
2026-05-05 08:31 52.28742 9.62992 32910 ft 478 kts 73°
2026-05-05 08:32 52.30647 9.73330 32909 ft 478 kts 74°
2026-05-05 08:32 52.32544 9.83760 32913 ft 478 kts 74°
2026-05-05 08:33 52.34433 9.94192 32903 ft 477 kts 74°
2026-05-05 08:33 52.36300 10.04556 32904 ft 477 kts 74°
2026-05-05 08:34 52.38166 10.14988 32902 ft 478 kts 74°
2026-05-05 08:34 52.40029 10.25446 32903 ft 477 kts 74°
2026-05-05 08:35 52.41883 10.35882 32901 ft 477 kts 75°
2026-05-05 08:35 52.42807 10.41124 32764 ft 477 kts 75°
2026-05-05 08:35 52.43718 10.46316 32492 ft 473 kts 75°
2026-05-05 08:35 52.44628 10.51501 32222 ft 471 kts 75°
2026-05-05 08:36 52.45529 10.56652 31972 ft 470 kts 75°
2026-05-05 08:36 52.46426 10.61783 31572 ft 467 kts 75°
2026-05-05 08:36 52.47308 10.66845 30973 ft 466 kts 75°
2026-05-05 08:36 52.48193 10.71951 30396 ft 464 kts 75°
2026-05-05 08:37 52.49072 10.77046 29794 ft 463 kts 75°
2026-05-05 08:37 52.49946 10.82125 29198 ft 460 kts 75°
2026-05-05 08:37 52.50813 10.87166 28665 ft 456 kts 75°
2026-05-05 08:37 52.51667 10.92162 28108 ft 453 kts 75°
2026-05-05 08:38 52.52510 10.97129 27584 ft 449 kts 75°
2026-05-05 08:38 52.53340 11.02058 27059 ft 445 kts 77°
2026-05-05 08:38 52.53866 11.06969 26627 ft 438 kts 88°
2026-05-05 08:38 52.53870 11.11918 26176 ft 429 kts 99°
2026-05-05 08:39 52.53369 11.16704 25728 ft 421 kts 109°
2026-05-05 08:39 52.52507 11.21261 25286 ft 415 kts 112°
2026-05-05 08:39 52.51628 11.25771 24837 ft 412 kts 112°
2026-05-05 08:39 52.50758 11.30237 24384 ft 409 kts 112°
2026-05-05 08:40 52.49901 11.34624 23940 ft 408 kts 112°
2026-05-05 08:40 52.49032 11.39055 23467 ft 407 kts 112°
2026-05-05 08:40 52.48161 11.43472 22953 ft 405 kts 112°
2026-05-05 08:40 52.47299 11.47842 22490 ft 401 kts 112°
2026-05-05 08:41 52.46445 11.52175 22025 ft 397 kts 112°
2026-05-05 08:41 52.45598 11.56465 21566 ft 394 kts 112°
2026-05-05 08:41 52.44755 11.60718 21121 ft 391 kts 112°
2026-05-05 08:41 52.43913 11.64944 20664 ft 389 kts 112°
2026-05-05 08:42 52.43078 11.69145 20208 ft 387 kts 112°
2026-05-05 08:42 52.42253 11.73285 19768 ft 384 kts 112°
2026-05-05 08:42 52.41423 11.77432 19324 ft 381 kts 112°
2026-05-05 08:42 52.40597 11.81542 18887 ft 379 kts 112°
2026-05-05 08:43 52.39775 11.85630 18447 ft 376 kts 112°
2026-05-05 08:43 52.38959 11.89685 17994 ft 374 kts 112°
2026-05-05 08:43 52.38146 11.93714 17546 ft 370 kts 111°
2026-05-05 08:43 52.37342 11.97694 17124 ft 366 kts 111°
2026-05-05 08:44 52.36547 12.01628 16711 ft 363 kts 111°
2026-05-05 08:44 52.35762 12.05493 16308 ft 360 kts 111°
2026-05-05 08:44 52.34977 12.09356 15901 ft 357 kts 111°
2026-05-05 08:44 52.34194 12.13203 15492 ft 355 kts 111°
2026-05-05 08:45 52.33416 12.17019 15092 ft 352 kts 111°
2026-05-05 08:45 52.32642 12.20807 14693 ft 350 kts 111°
2026-05-05 08:45 52.31872 12.24570 14291 ft 348 kts 111°
2026-05-05 08:45 52.31106 12.28316 13889 ft 346 kts 111°
2026-05-05 08:46 52.30340 12.32045 13466 ft 345 kts 111°
2026-05-05 08:46 52.29575 12.35746 13064 ft 343 kts 111°
2026-05-05 08:46 52.28812 12.39428 12652 ft 341 kts 111°
2026-05-05 08:46 52.28053 12.43092 12255 ft 339 kts 111°
2026-05-05 08:47 52.27301 12.46718 11843 ft 336 kts 111°
2026-05-05 08:47 52.26561 12.50277 11442 ft 333 kts 111°
2026-05-05 08:47 52.25818 12.53850 11035 ft 331 kts 111°
2026-05-05 08:47 52.25079 12.57397 10620 ft 329 kts 111°
2026-05-05 08:48 52.24343 12.60918 10215 ft 327 kts 111°
2026-05-05 08:48 52.23616 12.64395 9995 ft 317 kts 111°
2026-05-05 08:48 52.22924 12.67718 9622 ft 303 kts 111°
2026-05-05 08:48 52.22247 12.70943 9209 ft 298 kts 111°
2026-05-05 08:49 52.21580 12.74098 8786 ft 298 kts 111°
2026-05-05 08:49 52.20902 12.77294 8330 ft 295 kts 111°
2026-05-05 08:49 52.20239 12.80438 7887 ft 293 kts 110°
2026-05-05 08:49 52.19897 12.83712 7432 ft 293 kts 91°
2026-05-05 08:50 52.20153 12.86944 6984 ft 292 kts 74°
2026-05-05 08:50 52.20869 12.90027 6521 ft 290 kts 69°
2026-05-05 08:50 52.21588 12.93079 6066 ft 287 kts 70°
2026-05-05 08:50 52.22311 12.96102 5614 ft 285 kts 69°
2026-05-05 08:51 52.23043 12.99099 5187 ft 283 kts 69°
2026-05-05 08:51 52.23762 13.02050 4976 ft 278 kts 69°
2026-05-05 08:51 52.24477 13.04992 4983 ft 278 kts 69°
2026-05-05 08:51 52.25173 13.07859 4983 ft 262 kts 69°
2026-05-05 08:52 52.25831 13.10574 4796 ft 253 kts 69°
2026-05-05 08:52 52.26472 13.13221 4488 ft 246 kts 69°
2026-05-05 08:52 52.27083 13.15751 4169 ft 234 kts 69°
2026-05-05 08:52 52.27669 13.18176 3863 ft 225 kts 69°
2026-05-05 08:53 52.28233 13.20515 3571 ft 217 kts 69°
2026-05-05 08:53 52.28767 13.22732 3303 ft 208 kts 69°
2026-05-05 08:53 52.29283 13.24875 3047 ft 197 kts 69°
2026-05-05 08:53 52.29777 13.26929 2775 ft 191 kts 69°
2026-05-05 08:54 52.30260 13.28937 2517 ft 189 kts 69°
2026-05-05 08:54 52.30734 13.30916 2262 ft 186 kts 69°
2026-05-05 08:54 52.31203 13.32870 2021 ft 182 kts 69°
2026-05-05 08:54 52.31648 13.34724 1779 ft 169 kts 69°
2026-05-05 08:55 52.32056 13.36426 1565 ft 155 kts 70°
2026-05-05 08:55 52.32439 13.38025 1331 ft 148 kts 70°
2026-05-05 08:55 52.32809 13.39574 1133 ft 145 kts 70°
2026-05-05 08:55 52.33174 13.41099 950 ft 142 kts 70°
2026-05-05 08:56 52.33531 13.42592 748 ft 139 kts 70°
2026-05-05 08:56 52.33875 13.44036 552 ft 137 kts 70°
2026-05-05 08:56 52.34220 13.45483 376 ft 136 kts 69°
2026-05-05 08:56 52.34562 13.46923 208 ft 135 kts 69°
2026-05-05 08:57 52.34874 13.48245 160 ft 104 kts 68°
2026-05-05 08:57 52.35077 13.49088 158 ft 56 kts 68°
2026-05-05 08:57 52.35208 13.49621 158 ft 46 kts 69°
2026-05-05 08:57 52.35315 13.50096 156 ft 42 kts 67°
2026-05-05 08:58 52.35413 13.50438 157 ft 26 kts 57°
2026-05-05 08:58 52.35547 13.50648 155 ft 28 kts 36°
2026-05-05 08:58 52.35674 13.50812 151 ft 15 kts 36°
2026-05-05 08:58 52.35781 13.50820 150 ft 18 kts 339°
2026-05-05 08:59 52.35895 13.50748 153 ft 18 kts 339°
2026-05-05 08:59 52.35999 13.50682 153 ft 10 kts 338°
2026-05-05 08:59 52.36034 13.50703 153 ft 4 kts 56°
2026-05-05 08:59 52.36045 13.50743 148 ft 8 kts 70°
2026-05-05 09:00 52.36055 13.50785 154 ft 4 kts 69°
2026-05-05 09:00 52.36059 13.50802 155 ft 0 kts 69°